Tracking 32577 objects as of 14-Dec-2025
HD Live streaming from Space Station
objects crossing your sky now

INTELSAT 3-F3

Track INTELSAT 3-F3 now!
INTELSAT 3-F3 is classified as:


NORAD ID: 3674
Int'l Code: 1969-011A
Perigee: 39,868.8 km
Apogee: 41,589.7 km
Inclination: 10.0 °
Period: 1,695.5 minutes
Semi major axis: 47100 km
RCS: 0.4044 m2 (medium)
Launch date: February 6, 1969
Source: International Telecommunications Satellite Organization (ITSO)
Launch site: AIR FORCE EASTERN TEST RANGE (AFETR)
Your satellite tracking list
Your tracking list is empty




NASA's NSSDC Master Catalog

Two Line Element Set (TLE):
1 03674U 69011A   25347.93144552 -.00000162  00000-0  00000-0 0  9991
2 03674   9.9716 304.1308 0182680 357.6703 190.5888  0.84931342 65126
Source of the keplerian elements: AFSPC